Torna al catalogo

SL-12 DEB

LostHEO
NORAD 41643·DEBRIS·🇷🇺 Russia

Lanciato Dec 25, 2008 da Baikonur Cosmodrome

Loading…

Prossimi Passaggi (prossime 24 ore)

TLE

ObsoletoSource: Space-Track

Epoca: Jan 19, 2019, 06:16 UTC

1 41643U 08067P   19019.26137591 -.00000048  00000-0  00000+0 0  9995
2 41643  63.1137  78.9591 5046501  50.8780 344.2374  4.13694446 39807

Traccia SL-12 DEB in tempo reale con AllMySat

Download on the App Store